THOR ABLESTAR DEB, 15783

Orbit data source: Space-Track

THOR ABLESTAR DEB, 15783 is space debris in LEO originally from a launch on Thu, 29 Jun 1961 UTC launched from the Air Force Eastern Test Range (AFETR). Debris objects in space refer to the collection of defunct objects orbiting the Earth. Examples of debris include non-operational satellites, rocket bodies, and fragments generated from explosions, collisions, or faulty payload assembly.

Loading next visibility...
Identifier
15783, 1961-015LG
Orbit
LEO
Country
Flag of USUS
Related business
Manufacturer
Unknown
Mission
Spacecraft
Bus & Motor
Unknown
Mass
Unknown
Launch date (UTC)
1961-06-29 (65 years ago)
Launch vehicle
Unknown
Launch site
Air Force Eastern Test Range (AFETR)
Object type
Payload
Rocket body
Debris
Shape & HBR
Unknown shape, 0.1 m
Radar Cross Section
Small (<0.1 m²)

Expand to show TLE details & history
Last TLE update: 20 hours ago

TLE from 20 hours ago
0 THOR ABLESTAR DEB
1 15783U 61015LG  26033.44667234  .00008913  00000-0  11281-2 0  9993
2 15783  67.0364  64.4877 0040085 332.1463 147.3627 14.81638948162840
Epoch: 2026-02-02T10:43Z
TLE epoch observation values (Epoch: 2026-02-02T10:43:12.490Z)
Latitude
53.18893°
Longitude
-83.22794°
Altitude
655.701 km
Speed
7.522 km/s
True Right ascension
14h 00m 51s
True Declination
53° 01' 17"
Sunlit
Object was in daylight at epoch
Visualization orbit readout
Latitude
Unknown
Longitude
Unknown
Altitude
Unknown
Speed
Unknown
Apparent Right ascension
Unknown
Apparent Declination
Unknown
Sunlit
N/A
Visualization observer readout
Local Sidereal Time
08:44:32
Azimuth
Unknown
Elevation
Unknown
Doppler factor
Unknown
Orbital elements
Apogee altitude
650.513 km
Perigee altitude
594.39 km
Semi-major axis
7,000.588 km
Eccentricity
0.00401
Inclination
67.0364°
RAAN
64.4877°
Arg. of periapsis
332.1463°
True anomaly
147.60939°
Mean anomaly
147.3627°
Eccentric anomaly
147.48615°
Mean motion
3.70545 °/min
Orbital period
97.15 mins
BSTAR
0.0011281

Documentation

Showing up to 5 results
|